Погода в Шумерле

Россия / Чувашская Республика     55°31′22″N   46°22′31″E
темп.,
°C
ветер,
м/с
пор.,
м/с
влажн.,
%
обл.,
%
осадки,
мм/ч
давл.,
гПа
погр.,
м
6 мая, чт
чт600:00+3ююз128873 0.0 101218
03:00+5ююз259397 0.1 1012149
06:00+7ююз2794100 0.1 1013260
09:00+11юз257683 0.2 1014487
12:00+17юз475214 0.0 10141720
15:00+18юз5850100 0.0 10132087
18:00+15ююз41065100 0.0 1013841
21:00+10ю3127998 0.0 1014322
7 мая, пт
пт700:00+9ю3128699 0.0 1014314
03:00+10ю41279100 0.0 1013338
06:00+11ю41273100 0.0 1013460
09:00+11ю41270100 0.0 1013589
12:00+16ююз61254100 0.1 10131894
15:00+14з5774100 0.9 10141016
18:00+8сз2591100 1.2 1016338
21:00+6зюз1197100 1.2 101710
8 мая, сб
сб800:00+5ссз119597 0.0 101810
03:00+4св11931 0.0 101810
06:00+7в24884 0.0 1018146
09:00+12юв247127 0.0 1017787
12:00+16ю4757100 0.0 10151568
15:00+18ю4952100 0.1 10131955
18:00+16ююв3864100 0.0 1012433
21:00+11юв3887100 0.0 1011153
9 мая, вс
вс900:00+12ююв41575100 0.0 1010473
03:00+12ююв41486100 0.3 1009542
06:00+11ю41390100 2.6 1009679
09:00+9зюз2693100 3.0 1012412
12:00+10з3482100 0.0 1014724
15:00+10з3577100 0.4 1015625
18:00+7ссз3793100 2.9 1018464
21:00+7сз2695100 4.1 1020319
10 мая, пн
пн1000:00+7ссз2793100 0.3 1020284
03:00+6с2892100 0.3 1023372
06:00+6ссв41091100 0.5 1025468
09:00+6ссв41093100 1.8 1026560
12:00+8св4987100 0.0 1028529
15:00+9св398097 0.0 1028458
18:00+10всв3107385 0.0 1028478
21:00+7всв3108567 0.0 1029242